Temperature
20 20 20 20 19 19 19 19 19 19 19 19 19 19 19 19 19 19 19 19 19 19 19 18 18 18 18 18 18 18 18 18 18 18 18 18 18 18 18 18 18 18 18
20 20 20 20 19 19 19 19 19 19 19 19 19 19 19 19 19 19 19 19 19 18 18 18 18 18 18 18 18 18 18 18 18 18 18 18 18 18 18 18 18 18 18
20 20 20 20 19 19 19 19 19 19 19 19 19 19 19 19 19 19 19 19 19 18 18 18 18 18 18 18 18 18 18 18 18 18 18 18 18 18 18 18 18 18 18
20 19 20 20 19 19 19 19 19 19 19 19 19 19 19 19 19 19 19 18 18 18 18 18 18 18 18 18 18 18 18 18 18 18 18 18 18 18 18 18 18 18 18
20 20 20 19 19 19 19 19 19 19 19 19 19 19 19 19 19 18 18 18 18 18 18 18 18 18 18 18 18 18 18 18 18 18 18 18 18 18 18 18 18 18 18
20 20 20 19 19 19 19 19 19 19 19 19 19 19 19 19 19 19 18 18 18 18 18 18 18 18 18 18 18 18 18 18 18 18 18 18 18 18 18 18 18 17 17
20 20 20 20 19 19 19 19 19 19 19 19 19 19 19 19 19 19 18 18 18 18 18 18 18 18 18 18 18 18 18 18 18 18 18 18 18 18 18 18 18 17 17
20 20 20 20 20 19 19 19 19 19 19 19 19 19 19 19 19 18 18 18 18 18 18 18 18 18 18 18 18 19 18 18 18 18 18 18 18 18 18 18 18 17 17
21 20 20 20 20 19 19 19 19 19 19 19 19 19 19 19 19 19 18 19 19 19 19 18 18 19 19 19 19 19 19 19 18 18 18 18 18 18 18 18 17 17 17
21 20 20 19 19 19 19 19 19 19 19 19 19 19 19 19 19 19 19 19 19 19 19 19 19 19 19 19 19 19 19 19 18 18 18 18 18 18 18 18 18 18 17
21 21 20 20 20 19 19 19 19 19 19 19 19 19 19 18 18 18 19 19 19 19 19 19 19 19 19 19 19 19 19 19 19 18 19 18 18 18 18 18 18 18 17
21 21 21 20 20 20 19 19 19 19 19 19 19 19 19 19 18 19 19 19 19 19 19 19 19 19 19 19 19 19 19 19 19 19 19 18 18 18 18 18 18 17 17
21 21 21 20 20 20 20 19 19 19 19 19 19 19 19 19 19 19 19 19 19 19 19 19 19 19 19 19 19 19 19 19 19 19 19 18 18 18 18 18 18 18 17
21 21 21 20 20 20 20 20 20 19 19 19 19 19 19 19 19 19 19 19 19 19 19 19 19 19 19 19 19 19 19 19 19 19 19 18 18 18 18 18 18 18 17
21 21 21 20 20 20 20 20 20 20 19 19 19 19 19 19 19 19 19 19 19 19 19 19 19 19 19 19 19 19 19 19 19 19 18 18 18 18 18 18 18 18 17
21 21 20 20 20 20 20 20 20 20 20 19 19 19 19 19 19 19 19 19 19 19 19 19 19 19 19 19 19 19 19 19 18 18 18 18 18 18 18 18 18 18 17
21 21 21 20 20 20 20 20 20 20 20 19 19 19 19 19 19 19 19 19 19 19 19 19 19 19 19 19 19 19 19 18 18 18 18 18 18 18 18 18 18 17 17
22 21 21 21 20 20 20 20 20 20 20 19 19 19 19 19 19 19 19 19 19 19 19 19 19 19 19 19 19 19 19 18 18 18 18 18 18 18 18 18 18 17 17
22 21 21 21 20 20 20 20 20 20 19 19 19 19 19 19 19 19 19 19 19 19 19 19 19 19 19 19 19 19 19 19 18 18 18 18 18 18 18 18 18 17 17
22 21 21 20 20 20 20 20 20 19 19 19 19 19 19 19 19 19 19 19 19 19 19 19 19 19 19 19 19 19 19 19 19 19 18 18 18 18 18 17 17 17 17
22 21 21 20 20 20 20 20 20 19 19 19 19 19 19 19 19 19 19 19 19 19 19 19 19 19 19 19 19 19 19 19 19 19 19 18 18 18 18 18 17 17 17
22 21 21 21 20 20 20 20 20 20 20 19 19 19 19 19 19 19 19 19 19 19 19 19 19 19 19 19 19 19 19 19 19 19 19 19 18 18 18 18 17 17 17
22 21 21 21 21 20 20 20 20 20 20 20 19 19 19 19 19 19 19 19 19 19 19 19 19 19 19 19 19 19 19 19 19 19 19 19 19 18 18 18 17 17 17
23 22 21 21 21 21 20 20 20 20 20 20 20 19 19 19 19 19 19 19 19 19 19 19 19 19 19 19 19 19 19 19 19 19 19 19 19 18 18 18 17 17 17
23 22 22 21 21 21 20 20 20 20 20 20 20 20 19 19 19 19 19 19 19 19 19 19 19 19 19 19 19 19 19 19 19 19 19 19 19 18 18 18 17 17 17
24 23 22 21 21 21 21 20 20 20 20 20 20 20 20 19 19 19 19 19 19 19 19 19 19 19 19 19 19 19 19 19 19 19 19 19 19 18 18 18 18 17 17
Wind_Speed
9 10 11 11 12 12 13 14 14 15 15 15 15 15 16 16 17 18 19 20 20 21 21 21 21 21 21 22 22 21 21 20 20 20 19 18 17 15 14 15 15 15 16
11 11 12 11 11 12 13 14 15 15 16 16 16 16 16 17 18 18 19 21 21 22 22 21 21 21 22 22 21 21 20 20 19 19 19 17 15 14 13 13 14 14 15
11 11 11 11 11 12 13 14 15 16 16 16 16 17 17 17 18 18 19 21 22 22 22 21 21 21 21 21 20 19 18 18 18 17 16 14 14 13 14 16 17 16 15
11 11 12 13 13 14 14 14 15 16 16 16 17 17 18 18 18 19 20 21 21 21 21 20 20 20 20 19 18 17 17 16 15 15 12 13 13 14 14 15 15 14 13
12 13 14 15 16 16 15 15 15 16 16 17 17 17 18 18 18 18 19 20 20 20 20 20 19 18 18 17 16 15 14 13 12 10 10 13 13 13 13 13 13 13 12
13 14 15 17 17 16 16 16 15 16 16 17 17 17 18 18 18 18 18 19 19 19 19 18 17 16 16 15 14 13 11 10 8 8 11 14 12 12 12 12 12 12 11
12 14 15 16 16 16 16 15 15 15 16 16 16 16 17 17 18 18 17 18 18 18 17 17 15 14 14 12 11 9 7 6 6 8 13 13 13 13 11 11 11 11 10
13 14 14 15 16 15 15 15 15 15 15 15 15 15 16 16 17 17 17 18 17 17 16 15 14 13 12 11 8 6 4 2 7 10 13 14 15 13 12 11 10 10 10
12 13 13 13 13 14 14 14 13 13 13 14 14 14 14 15 15 16 16 15 15 15 15 14 13 12 11 9 7 5 3 1 3 8 12 13 14 14 13 11 10 10 9
10 10 10 12 13 12 12 13 12 12 12 12 12 12 13 14 14 15 15 13 13 13 13 13 12 11 9 7 5 3 2 2 4 9 11 12 14 13 12 11 10 10 9
8 7 8 9 10 11 12 12 11 11 11 10 10 10 10 10 12 13 14 13 12 12 11 11 10 10 9 8 6 5 4 3 6 9 10 14 15 13 12 11 9 10 9
7 7 7 7 7 8 9 10 9 8 9 6 7 8 7 7 9 12 14 14 12 11 10 10 10 9 8 7 8 7 3 4 7 9 11 16 15 13 12 10 10 9 9
6 6 7 6 5 6 5 6 5 6 7 7 7 7 7 6 7 10 9 10 10 10 8 9 9 7 7 5 5 6 4 3 7 9 12 15 14 13 11 10 10 9 9
6 6 7 7 5 5 4 4 4 4 5 5 5 5 5 3 3 4 4 6 6 6 5 5 4 4 3 3 3 3 3 4 6 9 11 14 14 13 11 11 10 9 8
7 7 8 7 6 4 3 1 4 4 5 6 5 4 4 3 3 3 3 2 2 3 4 2 3 3 2 2 2 2 2 3 6 8 10 13 13 12 11 10 10 9 8
7 8 8 8 6 4 2 2 3 4 4 5 5 5 4 3 3 3 2 2 2 2 2 2 2 2 2 2 1 2 2 2 5 8 10 11 12 12 11 10 10 9 8
8 8 8 8 7 4 4 2 3 3 5 5 5 5 4 4 4 2 2 2 2 2 2 2 1 1 2 2 2 2 2 2 4 5 9 10 11 12 13 12 11 10 9
9 8 7 8 9 6 3 1 1 3 4 4 5 6 5 4 4 2 2 2 3 3 2 2 1 1 1 1 2 2 2 3 4 6 7 10 10 10 12 13 12 11 10
9 8 6 6 8 6 5 3 1 2 3 2 3 4 5 4 4 3 2 2 3 2 2 2 2 1 1 2 3 3 3 3 3 4 5 7 9 10 11 13 13 12 11
10 9 7 6 7 6 4 3 2 2 3 2 2 3 4 3 4 3 3 3 1 2 2 2 3 2 2 2 2 2 3 3 3 3 4 4 5 8 9 10 11 10 10
11 9 8 7 6 4 4 3 3 3 3 3 3 4 4 3 3 2 1 2 2 2 2 2 2 2 2 2 1 1 1 3 4 3 3 2 3 5 6 9 9 8 8
12 10 9 8 7 5 4 3 3 3 3 3 3 4 4 4 4 4 3 3 3 3 2 2 2 1 2 2 1 1 1 0 1 3 4 4 3 3 4 7 8 7 7
13 12 11 9 8 7 5 4 3 3 2 2 4 4 3 4 4 2 3 2 2 3 3 3 2 2 2 2 2 1 1 0 1 1 3 3 4 3 3 4 7 7 7
14 13 10 10 9 8 6 5 4 4 3 3 3 3 4 4 4 4 3 2 2 2 2 3 3 2 2 2 2 1 1 1 1 1 1 2 4 4 4 3 4 6 8
14 14 12 10 9 8 7 6 4 3 3 2 3 4 4 4 4 4 4 3 2 1 2 1 1 2 2 2 1 1 1 1 2 2 2 2 2 3 4 4 2 3 5
14 14 14 12 10 9 8 6 5 4 3 2 2 3 4 3 4 4 4 3 2 2 2 2 2 3 2 2 2 2 1 1 2 2 2 2 2 2 3 3 4 4 5
Wind_Direction
74 78 74 68 68 69 72 73 75 76 77 80 82 81 83 85 90 96 102 107 110 111 113 114 113 114 114 116 117 118 118 117 118 119 118 118 119 119 121 123 118 112 115
83 81 79 73 73 76 79 79 78 78 80 82 84 83 85 87 92 96 101 105 107 109 111 112 114 114 113 115 118 120 121 122 121 121 119 118 119 118 117 116 110 117 119
86 86 83 77 80 82 83 83 81 80 82 85 87 87 87 89 91 96 101 104 107 109 111 112 114 115 115 117 120 122 125 127 128 128 125 117 116 115 111 109 112 118 121
83 81 79 86 88 90 87 87 85 84 85 87 91 91 91 91 93 96 101 105 108 110 112 113 115 117 119 122 126 128 131 135 140 141 133 123 120 117 113 114 117 120 123
84 86 86 90 93 94 91 89 87 86 88 89 92 93 95 95 96 98 102 104 108 111 113 114 116 120 122 126 130 133 138 143 150 147 121 113 112 121 121 122 123 123 126
96 93 92 95 95 93 92 91 89 88 90 92 94 95 97 97 98 99 102 105 108 112 113 114 116 120 123 128 133 138 142 147 155 145 126 118 118 125 126 127 127 129 130
96 99 100 100 97 95 95 93 93 92 93 96 98 99 99 100 102 102 104 109 110 111 113 115 118 120 124 129 136 140 145 155 156 128 119 119 125 132 132 133 132 136 136
103 102 107 106 104 101 99 97 97 97 97 100 102 104 105 104 104 105 105 111 112 114 115 117 119 121 124 127 133 139 149 162 135 116 113 118 131 135 139 139 142 142 143
105 110 117 118 114 110 105 103 102 103 102 104 108 110 111 111 111 111 110 111 115 119 119 121 123 125 128 133 141 152 170 262 115 116 120 125 136 138 142 144 146 144 147
103 112 122 126 127 124 119 115 114 114 114 114 117 121 122 123 123 122 120 119 121 123 126 128 130 133 138 146 159 178 201 264 140 119 115 131 141 142 145 147 149 152 153
102 109 118 123 132 131 127 128 131 129 131 132 136 143 142 137 133 132 125 130 133 134 135 136 141 146 155 170 186 208 231 192 129 117 121 139 147 147 150 153 157 163 164
112 111 113 115 119 125 128 138 148 140 145 147 141 147 142 134 132 130 136 143 145 146 149 156 160 167 178 183 193 208 219 166 129 119 132 146 151 153 156 161 166 169 172
129 118 107 102 112 117 114 133 133 131 136 133 125 129 133 133 136 135 150 152 159 160 166 164 175 186 183 188 182 185 192 140 123 124 140 151 154 156 160 164 169 175 181
137 126 116 108 90 81 99 117 129 125 126 120 128 120 119 118 118 124 141 150 158 157 159 161 176 164 158 167 157 167 156 126 118 122 147 155 155 158 163 168 174 180 184
137 124 108 105 96 83 58 67 120 110 117 117 123 112 114 120 111 106 102 113 134 138 150 162 146 150 156 153 158 129 100 110 121 131 146 157 158 161 166 171 178 185 191
144 130 126 126 122 116 106 46 82 110 112 119 119 115 108 106 109 115 122 122 142 143 138 144 146 150 143 133 124 109 107 118 127 140 153 161 167 169 174 179 181 184 191
146 136 136 139 132 135 132 150 124 130 134 123 126 130 128 126 127 140 146 153 160 173 155 138 129 163 156 151 147 148 137 154 149 151 155 164 174 182 184 185 188 194 199
141 138 150 148 138 139 140 162 120 124 119 127 138 142 141 142 147 161 149 166 183 177 151 147 167 179 121 142 143 179 167 169 177 174 170 173 178 181 186 190 192 197 203
136 136 142 134 137 145 151 155 138 105 106 124 132 138 140 146 149 163 152 162 194 167 167 167 133 139 165 177 180 190 190 192 188 182 176 177 181 175 176 187 194 199 203
138 137 141 139 135 144 149 151 158 136 135 146 133 137 137 154 160 171 170 173 176 135 158 141 153 178 200 221 216 185 204 193 186 184 189 174 172 177 173 173 184 198 204
145 143 144 147 143 148 156 166 172 163 162 159 156 151 155 167 161 178 157 156 174 163 162 158 174 188 195 192 199 203 234 215 190 176 181 178 175 166 166 161 173 180 187
152 151 152 157 155 161 162 169 171 169 167 164 151 141 161 170 179 187 168 195 190 158 169 180 168 227 226 169 192 177 213 250 254 187 169 181 179 161 172 171 170 175 173
160 163 166 161 161 168 170 167 176 163 179 152 148 157 174 180 186 186 182 209 181 177 176 187 185 214 236 230 219 209 234 187 256 209 187 171 165 175 191 164 172 176 176
165 166 160 158 161 166 176 175 182 173 179 171 163 162 170 179 190 186 188 195 205 195 167 195 173 232 230 246 223 223 217 131 212 256 257 183 184 191 193 197 173 171 172
168 167 163 159 162 166 178 182 188 189 188 179 166 165 173 187 194 199 185 186 200 210 179 216 164 231 250 272 272 233 223 199 221 228 239 228 229 197 183 185 176 170 171
169 167 166 161 165 170 179 182 185 192 199 201 198 181 189 191 196 195 181 183 189 203 197 216 216 225 236 266 289 294 265 227 229 245 255 241 237 223 189 174 185 182 178
Height
1491 1489 1487 1485 1483 1482 1481 1480 1480 1481 1481 1482 1483 1484 1485 1486 1486 1487 1488 1490 1492 1495 1498 1501 1504 1507 1510 1513 1516 1520 1522 1525 1529 1532 1534 1536 1538 1540 1542 1543 1545 1546 1547
1491 1489 1487 1485 1483 1483 1484 1484 1484 1484 1484 1485 1486 1487 1487 1488 1490 1491 1492 1493 1496 1498 1501 1504 1508 1511 1514 1517 1520 1523 1525 1528 1531 1534 1536 1538 1540 1542 1543 1545 1546 1548 1549
1492 1489 1485 1483 1483 1484 1486 1487 1487 1487 1487 1488 1488 1489 1490 1491 1493 1494 1495 1497 1500 1503 1505 1508 1511 1514 1517 1520 1523 1526 1528 1531 1534 1536 1538 1540 1542 1544 1545 1547 1548 1549 1551
1493 1489 1485 1482 1483 1486 1489 1490 1491 1491 1490 1490 1491 1493 1494 1495 1496 1498 1499 1502 1505 1507 1510 1512 1515 1518 1520 1523 1526 1529 1531 1534 1536 1538 1541 1542 1543 1545 1547 1548 1549 1551 1552
1494 1491 1488 1485 1486 1490 1492 1493 1494 1494 1494 1494 1495 1496 1497 1499 1500 1502 1503 1506 1509 1511 1514 1516 1519 1521 1524 1526 1529 1532 1534 1536 1538 1540 1542 1544 1545 1546 1548 1549 1550 1552 1553
1497 1495 1493 1492 1493 1494 1496 1497 1497 1497 1497 1498 1499 1500 1501 1503 1504 1505 1507 1509 1512 1515 1517 1520 1522 1524 1527 1529 1532 1534 1536 1538 1540 1542 1544 1545 1546 1548 1549 1550 1551 1552 1554
1500 1498 1498 1497 1498 1498 1499 1500 1500 1501 1501 1502 1503 1504 1505 1506 1508 1509 1510 1513 1516 1518 1521 1523 1525 1527 1529 1532 1534 1536 1538 1540 1542 1544 1545 1546 1548 1549 1549 1551 1552 1553 1554
1502 1501 1501 1501 1501 1502 1502 1503 1504 1504 1505 1505 1506 1508 1509 1510 1512 1513 1514 1516 1519 1522 1524 1526 1528 1530 1532 1534 1536 1538 1540 1542 1544 1545 1546 1547 1549 1549 1550 1551 1552 1554 1555
1504 1504 1504 1504 1504 1505 1505 1506 1507 1508 1508 1509 1510 1511 1513 1514 1516 1517 1519 1521 1523 1525 1527 1529 1531 1533 1535 1537 1539 1540 1542 1543 1545 1546 1547 1548 1549 1550 1551 1552 1553 1554 1555
1507 1507 1507 1507 1508 1508 1509 1509 1510 1511 1512 1513 1513 1515 1516 1518 1519 1521 1523 1524 1526 1528 1529 1531 1533 1535 1537 1539 1541 1543 1544 1545 1546 1547 1548 1549 1550 1551 1552 1553 1554 1554 1555
1509 1510 1511 1511 1511 1512 1512 1513 1514 1514 1515 1516 1517 1518 1519 1521 1522 1524 1526 1528 1529 1531 1532 1534 1536 1538 1540 1541 1543 1544 1545 1546 1547 1548 1549 1550 1551 1551 1552 1553 1554 1555 1556
1511 1512 1512 1513 1514 1515 1516 1516 1516 1517 1518 1519 1520 1521 1523 1524 1526 1527 1529 1531 1532 1533 1535 1536 1538 1540 1541 1543 1544 1545 1546 1547 1548 1548 1549 1550 1551 1552 1552 1553 1554 1555 1555
1512 1513 1514 1515 1516 1517 1518 1519 1519 1520 1521 1522 1523 1524 1525 1527 1528 1530 1531 1532 1534 1535 1537 1538 1540 1541 1542 1544 1546 1546 1547 1548 1548 1548 1549 1550 1551 1552 1552 1553 1553 1554 1555
1512 1514 1515 1516 1517 1518 1519 1520 1521 1522 1523 1524 1525 1526 1527 1529 1530 1532 1533 1534 1535 1537 1538 1540 1541 1542 1544 1545 1546 1547 1548 1548 1549 1549 1549 1550 1551 1552 1552 1552 1553 1554 1554
1513 1514 1516 1516 1517 1519 1520 1521 1523 1524 1525 1525 1526 1528 1529 1530 1532 1533 1534 1535 1537 1538 1539 1541 1542 1543 1544 1545 1546 1547 1548 1549 1549 1549 1549 1550 1551 1551 1552 1552 1552 1553 1553
1513 1515 1516 1517 1518 1519 1520 1521 1523 1524 1526 1527 1527 1528 1530 1531 1532 1533 1535 1536 1537 1539 1540 1541 1542 1543 1544 1545 1546 1547 1547 1548 1549 1549 1549 1550 1550 1551 1551 1552 1552 1552 1552
1513 1514 1516 1518 1518 1520 1521 1522 1524 1525 1527 1527 1528 1529 1530 1532 1533 1534 1535 1536 1538 1539 1540 1541 1542 1543 1544 1545 1546 1546 1547 1547 1548 1549 1549 1549 1549 1550 1550 1550 1551 1551 1551
1512 1514 1516 1519 1519 1520 1522 1523 1525 1526 1527 1528 1529 1530 1531 1532 1533 1535 1536 1537 1538 1539 1540 1541 1542 1543 1544 1544 1545 1546 1546 1547 1547 1548 1548 1548 1548 1549 1549 1549 1549 1549 1549
1512 1514 1516 1518 1519 1520 1522 1523 1525 1526 1528 1529 1530 1531 1531 1532 1534 1535 1536 1537 1538 1539 1540 1541 1541 1542 1543 1544 1544 1545 1545 1546 1547 1547 1547 1547 1548 1548 1548 1548 1548 1548 1548
1512 1514 1516 1518 1519 1520 1522 1523 1525 1527 1528 1529 1530 1531 1532 1533 1534 1535 1536 1537 1538 1539 1540 1541 1541 1542 1542 1543 1544 1545 1545 1545 1546 1546 1546 1547 1547 1547 1547 1546 1546 1546 1546
1511 1513 1515 1517 1518 1520 1521 1523 1525 1526 1527 1529 1530 1531 1531 1532 1534 1535 1536 1537 1538 1539 1539 1540 1540 1541 1542 1543 1544 1544 1544 1544 1545 1545 1545 1546 1546 1546 1546 1545 1545 1545 1544
1510 1512 1514 1516 1518 1519 1521 1523 1524 1526 1527 1528 1530 1530 1531 1532 1533 1535 1536 1537 1538 1538 1539 1540 1540 1541 1542 1543 1543 1543 1544 1545 1544 1544 1544 1544 1545 1545 1545 1544 1544 1544 1543
1508 1510 1512 1514 1516 1519 1520 1522 1524 1526 1527 1528 1529 1530 1531 1532 1533 1534 1535 1536 1537 1538 1538 1539 1540 1541 1541 1542 1543 1543 1543 1543 1543 1544 1543 1543 1543 1543 1543 1543 1542 1542 1541
1506 1508 1511 1513 1515 1517 1519 1521 1523 1525 1526 1528 1528 1529 1530 1531 1532 1533 1534 1535 1536 1537 1538 1539 1539 1540 1540 1541 1541 1542 1542 1542 1542 1542 1543 1543 1542 1541 1541 1541 1541 1540 1540
1504 1507 1509 1511 1514 1516 1518 1520 1522 1524 1525 1527 1528 1529 1530 1531 1532 1533 1534 1534 1535 1536 1537 1538 1538 1539 1539 1540 1540 1540 1541 1541 1541 1541 1541 1541 1541 1540 1539 1539 1539 1539 1538
1502 1505 1507 1509 1512 1515 1517 1519 1521 1522 1524 1526 1527 1528 1529 1530 1531 1532 1532 1533 1534 1535 1536 1537 1537 1538 1538 1538 1539 1539 1539 1539 1539 1539 1539 1538 1538 1538 1538 1537 1537 1536 1536